Meridian, MS

4:39 PM CST on January 22, 2017 (GMT -0600)
Key

Weather History for KMEI - April, 2014

Change the Weather History Date:

Tuesday, April 1, 2014

  Actual Average Record
Temperature  
Mean Temperature 65 °F 59 °F  
Max Temperature 80 °F 73 °F 87 °F (1963)
Min Temperature 50 °F 45 °F 30 °F (1987)
Degree Days  
Heating Degree Days 0 7  
Month to date heating degree days 0 7  
Since 1 July heating degree days 2725 2411  
Cooling Degree Days 0 1  
Month to date cooling degree days 0 1  
Year to date cooling degree days 9 25  
Growing Degree Days 15 (Base 50)    
Moisture  
Dew Point 51 °F    
Average Humidity 62    
Maximum Humidity 89    
Minimum Humidity 35    
Precipitation  
Precipitation T in 0.17 in 2.92 in (1938)
Month to date precipitation T 0.17  
Year to date precipitation 15.09 16.32  
Sea Level Pressure  
Sea Level Pressure 30.09 in    
Wind  
Wind Speed 6 mph (South)    
Max Wind Speed 17 mph    
Max Gust Speed 22 mph    
Visibility 10 miles    
Events Rain , Thunderstorm    
T = Trace of Precipitation, MM = Missing Value Source: NWS Daily Summary

Daily Weather History Graph

Daily Weather History Graph

Search for Another Location

Airport or City:

Trip Planner

Search our weather history database for the weather conditions in past years. The results will help you decide how hot, cold, wet, or windy it might be!

Date:

Astronomy

Apr. 01, 2014 Rise Set
Actual Time 6:43 AM CDT 7:14 PM CDT
Civil Twilight 6:18 AM CDT 7:39 PM CDT
Nautical Twilight 5:49 AM CDT 8:08 PM CDT
Astronomical Twilight 5:20 AM CDT 8:38 PM CDT
Moon 7:52 AM CDT (4/1) 9:28 PM CDT (4/1)
Length of Visible Light 13h 21m
Length of Day
12h 31m
Waxing Crescent, 5% of the Moon is Illuminated
Apr 1
Waxing Crescent
Apr 7
First Quarter
Apr 15
Full
Apr 22
Last Quarter
Apr 29
New

Hourly Weather History & Observations

Time (CDT) Temp. Dew Point Humidity Pressure Visibility Wind Dir Wind Speed Gust Speed Precip Events Conditions
12:58 AM 53.1 °F 44.1 °F 71% 30.08 in 10.0 mi South 6.9 mph - N/A   Clear
1:10 AM 53.6 °F 44.6 °F 72% 30.11 in 10.0 mi SW 8.1 mph - N/A Thunderstorm Clear
1:25 AM 53.6 °F 44.6 °F 72% 30.07 in 10.0 mi SSE 11.5 mph - N/A   Clear
1:58 AM 55.9 °F 48.0 °F 75% 30.08 in 10.0 mi SSW 12.7 mph - N/A   Partly Cloudy
2:34 AM 55.4 °F 48.2 °F 77% 30.09 in 10.0 mi South 9.2 mph - N/A Thunderstorm Thunderstorm
2:49 AM 55.4 °F 48.2 °F 77% 30.09 in 10.0 mi South 9.2 mph - 0.00 in Rain Light Rain
2:58 AM 54.0 °F 48.0 °F 80% 30.08 in 10.0 mi SSW 8.1 mph - 0.00 in   Overcast
3:58 AM 54.0 °F 48.0 °F 80% 30.09 in 10.0 mi Calm Calm - N/A   Overcast
4:27 AM 53.6 °F 48.2 °F 82% 30.09 in 10.0 mi Calm Calm - N/A Thunderstorm Partly Cloudy
4:42 AM 51.8 °F 48.2 °F 88% 30.10 in 10.0 mi Calm Calm - N/A   Mostly Cloudy
4:58 AM 52.0 °F 48.9 °F 89% 30.09 in 10.0 mi Calm Calm - N/A   Overcast
5:58 AM 51.1 °F 48.0 °F 89% 30.11 in 10.0 mi SE 3.5 mph - N/A   Clear
6:58 AM 51.1 °F 48.9 °F 92% 30.13 in 10.0 mi Calm Calm - N/A   Mostly Cloudy
7:58 AM 53.1 °F 50.0 °F 89% 30.14 in 10.0 mi Calm Calm - N/A   Mostly Cloudy
8:58 AM 57.0 °F 51.1 °F 81% 30.15 in 10.0 mi Calm Calm - N/A   Mostly Cloudy
9:58 AM 63.0 °F 54.0 °F 72% 30.17 in 10.0 mi South 5.8 mph - N/A   Mostly Cloudy
10:58 AM 66.9 °F 55.9 °F 68% 30.16 in 10.0 mi South 6.9 mph - N/A   Partly Cloudy
11:58 AM 70.0 °F 57.0 °F 63% 30.14 in 10.0 mi South 8.1 mph - N/A   Mostly Cloudy
12:58 PM 73.9 °F 55.0 °F 52% 30.11 in 10.0 mi South 9.2 mph - N/A   Scattered Clouds
1:58 PM 75.9 °F 53.1 °F 45% 30.08 in 10.0 mi South 17.3 mph 21.9 mph N/A   Mostly Cloudy
2:58 PM 79.0 °F 53.1 °F 40% 30.06 in 10.0 mi SSW 10.4 mph - N/A   Scattered Clouds
3:58 PM 79.0 °F 48.0 °F 34% 30.04 in 10.0 mi South 11.5 mph 20.7 mph N/A   Clear
4:58 PM 77.0 °F 51.1 °F 40% 30.04 in 6.0 mi SSW 12.7 mph - N/A   Haze
5:58 PM 77.0 °F 51.1 °F 40% 30.04 in 10.0 mi SSW 12.7 mph - N/A   Scattered Clouds
6:58 PM 72.0 °F 54.0 °F 53% 30.04 in 10.0 mi South 5.8 mph - N/A   Clear
7:58 PM 66.0 °F 55.0 °F 68% 30.05 in 10.0 mi Calm Calm - N/A   Partly Cloudy
8:58 PM 63.0 °F 55.9 °F 78% 30.06 in 10.0 mi Calm Calm - N/A   Clear
9:58 PM 62.1 °F 55.0 °F 78% 30.06 in 10.0 mi SSW 4.6 mph - N/A   Clear
10:58 PM 61.0 °F 54.0 °F 78% 30.06 in 10.0 mi SSW 5.8 mph - N/A   Clear
11:58 PM 59.0 °F 54.0 °F 83% 30.07 in 10.0 mi South 5.8 mph - N/A   Clear